Flag for Russia Weather past 2 weeks in Sochi, Russia

Now
81 °F

Scattered clouds.


Feels Like: 83 °F
Forecast: 71 / 89 °F
Wind: 10 mph from Southwest

Location: Adler

Current Time: Jul 22, 2014 at 4:09:49 PM

Latest Report: Jul 22, 2014 at 3:30 PM


Visibility: N/A

Pressure: 29.86 "Hg

Humidity: 66%

Dew point: 68 °F

Location of SochiLocation

Historic Weather in Sochi — Graph

°F

Sochi temperature yesterday

Maximum temperature yesterday: 79 °F (at 10:00 AM)
Minimum temperature yesterday: 68 °F (at 6:30 AM)
Average temperature yesterday: 73 °F

Past Weeks' High & Low Weather Summary

 TemperatureHumidityPressure
High97 °F (Jul 12, 1:00 PM)94% (Jul 14, 5:00 AM)29.92 "Hg (Jul 14, 5:00 AM)
Low66 °F (Jul 8, 3:30 AM)27% (Jul 12, 1:30 PM)29.62 "Hg (Jul 12, 6:30 PM)
Average77 °F72%29.76 "Hg
* Reported Jul 7 3:00 PM — Jul 22 3:00 PM, Sochi, Weather by CustomWeather, © 2014

Note: Actual official high and low records may vary slightly from our data, if they occured in-between our weather recording intervals... More about our weather records

Advertising

Sochi weather history for previous 24 hours

 ConditionsComfort  
Time TempWeatherWind HumidityBarometerVisibility
3:00 PM
Jul 22
81 °FPassing clouds.10 mph66%29.83 "HgN/A
2:30 PM81 °FPassing clouds.10 mph66%29.83 "HgN/A
2:00 PM81 °FScattered clouds.10 mph66%29.86 "HgN/A
1:30 PM81 °FPartly sunny.10 mph66%29.83 "HgN/A
1:00 PM81 °FScattered clouds.8 mph62%29.83 "HgN/A
12:30 PM81 °FScattered clouds.13 mph62%29.83 "HgN/A
12:00 PM79 °FScattered clouds.8 mph70%29.83 "HgN/A
11:30 AM79 °FPassing clouds.6 mph65%29.83 "HgN/A
11:00 AM79 °FPassing clouds.6 mph61%29.83 "HgN/A
10:30 AM79 °FPassing clouds.3 mph61%29.83 "HgN/A
10:00 AM77 °FPassing clouds.6 mph61%29.83 "HgN/A
9:30 AM73 °FPassing clouds.10 mph65%29.83 "HgN/A
9:00 AM72 °FPassing clouds.10 mph69%29.83 "HgN/A
8:30 AM72 °FPassing clouds.10 mph69%29.80 "HgN/A
8:00 AM70 °FPassing clouds.10 mph69%29.80 "HgN/A
7:30 AM68 °FPassing clouds.10 mph73%29.80 "HgN/A
7:00 AM66 °FPassing clouds.10 mph78%29.80 "HgN/A
6:30 AM66 °FPassing clouds.10 mph78%29.80 "HgN/A
6:00 AM66 °FPassing clouds.8 mph78%29.80 "HgN/A
5:30 AM66 °FPassing clouds.8 mph83%29.80 "HgN/A
5:00 AM66 °FPassing clouds.8 mph83%29.80 "HgN/A
4:30 AM66 °FPassing clouds.10 mph83%29.80 "HgN/A
4:00 AM66 °FPassing clouds.8 mph83%29.80 "HgN/A
3:30 AM66 °FPassing clouds.10 mph83%29.80 "HgN/A
3:00 AM66 °FPassing clouds.6 mph83%29.80 "HgN/A
2:30 AM68 °FPassing clouds.8 mph78%29.80 "HgN/A
2:00 AM68 °FPassing clouds.8 mph83%29.77 "HgN/A
1:30 AM68 °FPassing clouds.8 mph83%29.80 "HgN/A
12:30 AM68 °FPassing clouds.6 mph83%29.80 "HgN/A
12:00 AM68 °FPassing clouds.8 mph83%29.80 "HgN/A
11:30 PM
Jul 21
68 °FPassing clouds.8 mph88%29.80 "HgN/A
11:00 PM70 °FPassing clouds.8 mph83%29.80 "HgN/A
10:30 PM70 °FPassing clouds.10 mph83%29.80 "HgN/A
10:00 PM70 °FPassing clouds.8 mph83%29.80 "HgN/A
9:30 PM70 °FPartly sunny.8 mph88%29.77 "HgN/A
9:00 PM72 °FPartly sunny.6 mph83%29.77 "HgN/A
8:30 PM72 °FPartly sunny.8 mph83%29.77 "HgN/A
8:00 PM73 °FPartly sunny.8 mph83%29.77 "HgN/A
7:30 PM73 °FPartly sunny.1 mph83%29.74 "HgN/A
7:00 PM73 °FPartly sunny.6 mph78%29.74 "HgN/A
6:30 PM73 °FPartly sunny.8 mph78%29.74 "HgN/A
6:00 PM72 °FPartly sunny.10 mph83%29.74 "HgN/A
5:30 PM70 °FSprinkles. Overcast.8 mph88%29.74 "HgN/A
5:00 PM70 °FThundershowers. Overcast.8 mph88%29.74 "HgN/A
4:30 PM72 °FThundershowers. Overcast.10 mph83%29.77 "HgN/A
4:00 PM73 °FThundershowers. Overcast.13 mph83%29.77 "HgN/A
Weather by CustomWeather, © 2014

See weather overviewHow to use our weather pages